Location: Ethel Rock
(53.4667°N, 4.5667°W)
Time: 00:21:39
(UTC+00:00)

Lacrosse 5 rocket - Pass Details

Date: 24 October 2020
Orbit: 458 x 638 km, 57.0° (Epoch: 26 November)

Event Time Altitude Azimuth Distance (km) Brightness Sun altitude
Rises 06:21:52 0° 225° (SW) 2,499 4.3 -6.7°
Reaches altitude 10° 06:23:59 10° 220° (SW) 1,642 3.5 -6.4°
Maximum altitude 06:27:33 50° 145° (SE) 633 2.0 -5.9°
Drops below altitude 10° 06:31:19 10° 69° (ENE) 1,733 4.9 -5.3°
Sets 06:33:37 0° 65° (ENE) 2,654 5.7 -5.0°
